{"data":{"norad_id":27848,"epoch":"2026-09-19T23:26:26.944800Z","epoch_age_seconds":59882,"freshness":"FRESH","line1":"1 27848U 03031J   26262.97670075  .00000139  00000+0  80276-4 0  9994","line2":"2 27848  98.6806 269.9965 0008369 292.3957  67.6334 14.23661736204865","mean_motion":14.23661736,"eccentricity":0.0008369,"inclination_deg":98.6806,"raan_deg":269.9965,"arg_perigee_deg":292.3957,"mean_anomaly_deg":67.6334,"bstar":8.0276e-5,"rev_number":20486,"period_min":101.14762261195,"perigee_km":806.97738499284,"apogee_km":819.01390281221,"semimajor_km":7191.1326439025,"source":"CELESTRAK","updated_at":"2026-09-20T09:00:47.986060Z"}}